Weather History for KPGA - February, 2012

Change the Weather History Date:

Monday, February 20, 2012

  Actual Average Record
Temperature  
Mean Temperature 36 °F -  
Max Temperature 46 °F 51 °F 70 °F (2015)
Min Temperature 26 °F 32 °F 23 °F (1967)
Degree Days  
Heating Degree Days 29    
Moisture  
Dew Point 10 °F    
Average Humidity 36    
Maximum Humidity 53    
Minimum Humidity 22    
Precipitation  
Precipitation 0.00 in - - ()
Sea Level Pressure  
Sea Level Pressure 30.10 in    
Wind  
Wind Speed 4 mph (ENE)    
Max Wind Speed 8 mph    
Max Gust Speed -    
Visibility 10 miles    
Events      
Averages and records for this station are not official NWS values.
T = Trace of Precipitation, MM = Missing Value Source: NWS Daily Summary

Daily Weather History Graph

Daily Weather History Graph

Search for Another Location

Airport or City:

Trip Planner

Search our weather history database for the weather conditions in past years. The results will help you decide how hot, cold, wet, or windy it might be!

Date:

Astronomy

Feb. 20, 2012 Rise Set
Actual Time 7:08 AM MST 6:10 PM MST
Civil Twilight 6:42 AM MST 6:37 PM MST
Nautical Twilight 6:12 AM MST 7:07 PM MST
Astronomical Twilight 5:42 AM MST 7:37 PM MST
Moon 6:06 AM MST (2/20) 5:19 PM MST (2/20)
Length of Visible Light 11h 54m
Length of Day
11h 01m
Waning Crescent, 1% of the Moon is Illuminated
Feb 20
Waning Crescent
Feb 21
New
Feb 29
First Quarter
Mar 8
Full
Mar 14
Last Quarter

Hourly Weather History & Observations

Time (MST) Temp. Windchill Dew Point Humidity Pressure Visibility Wind Dir Wind Speed Gust Speed Precip Events Conditions
12:53 AM 33.1 °F 27.7 °F 7.0 °F 34% 30.01 in 10.0 mi NW 5.8 mph - N/A   Clear
1:53 AM 30.0 °F 26.5 °F 10.9 °F 45% 30.03 in 10.0 mi NNE 3.5 mph - N/A   Clear
2:53 AM 30.0 °F - 9.0 °F 41% 30.04 in 10.0 mi Calm Calm - N/A   Clear
3:53 AM 28.9 °F - 9.0 °F 43% 30.04 in 9.0 mi Calm Calm - N/A   Clear
4:53 AM 26.6 °F 20.0 °F 10.4 °F 51% 30.05 in 10.0 mi SSE 5.8 mph - N/A   Clear
5:53 AM 26.1 °F 19.4 °F 10.9 °F 53% 30.09 in 10.0 mi SSE 5.8 mph - N/A   Clear
6:53 AM 26.6 °F 22.6 °F 8.6 °F 47% 30.08 in 10.0 mi SW 3.5 mph - N/A   Clear
7:53 AM 27.0 °F - 10.9 °F 51% 30.14 in 9.0 mi Calm Calm - N/A   Clear
8:53 AM 33.1 °F - 10.9 °F 40% 30.15 in 10.0 mi Calm Calm - N/A   Clear
9:53 AM 35.1 °F - 10.0 °F 35% 30.17 in 10.0 mi Calm Calm - N/A   Clear
10:53 AM 37.9 °F 33.5 °F 10.0 °F 32% 30.17 in 10.0 mi Variable 5.8 mph - N/A   Clear
11:53 AM 41.0 °F 37.1 °F 10.0 °F 28% 30.16 in 10.0 mi ENE 5.8 mph - N/A   Clear
12:53 PM 42.1 °F 38.4 °F 10.0 °F 27% 30.13 in 10.0 mi NNE 5.8 mph - N/A   Clear
1:53 PM 43.0 °F 38.2 °F 9.0 °F 25% 30.11 in 10.0 mi NE 8.1 mph - N/A   Clear
2:53 PM 44.1 °F 39.5 °F 10.0 °F 25% 30.08 in 10.0 mi NE 8.1 mph - N/A   Clear
3:53 PM 46.0 °F 43.1 °F 9.0 °F 22% 30.08 in 10.0 mi NE 5.8 mph - N/A   Clear
4:53 PM 45.0 °F 42.6 °F 9.0 °F 23% 30.07 in 10.0 mi NE 4.6 mph - N/A   Clear
5:53 PM 43.0 °F - 9.0 °F 25% 30.08 in 10.0 mi Calm Calm - N/A   Clear
6:53 PM 42.1 °F 40.2 °F 10.0 °F 27% 30.12 in 10.0 mi NNE 3.5 mph - N/A   Clear
7:53 PM 37.4 °F 34.9 °F 10.4 °F 33% 30.10 in 10.0 mi South 3.5 mph - N/A   Clear
8:53 PM 37.0 °F 34.5 °F 10.9 °F 34% 30.12 in 10.0 mi South 3.5 mph - N/A   Clear
9:53 PM 37.0 °F 34.5 °F 12.0 °F 36% 30.12 in 7.0 mi SSW 3.5 mph - N/A   Clear
10:53 PM 37.0 °F 34.5 °F 12.9 °F 37% 30.13 in 10.0 mi SSW 3.5 mph - N/A   Clear
11:53 PM 34.0 °F - 14.0 °F 44% 30.14 in 7.0 mi Calm Calm - N/A   Clear